Theta_e
336 329 318 317 300 299 294 297 304 305 307 313 311 311 313 313 311 304 320 331 330 332 344 350 353 353 352 352 350 348 347 347 346 345 343 340 339 338 337 336 336 336 335 335 335 335 334 333 333
321 320 318 310 296 291 291 300 302 306 310 313 312 310 311 311 317 319 320 332 330 335 343 345 353 353 353 352 351 349 347 347 346 345 342 342 340 338 337 337 337 337 337 336 336 336 335 335 334
316 316 310 305 297 291 292 301 304 310 313 315 311 314 315 315 323 322 326 334 333 336 342 343 354 352 353 352 351 349 348 347 346 343 343 341 341 340 339 337 337 337 337 338 338 337 337 337 337
316 311 307 300 298 300 299 303 307 309 311 315 315 312 315 323 324 325 334 333 332 335 340 345 353 352 353 352 351 350 349 348 347 345 344 342 341 342 341 338 338 338 338 339 339 339 339 340 340
312 306 298 297 299 302 306 308 308 307 309 312 313 311 312 323 330 333 333 332 331 332 336 341 353 353 353 353 352 351 349 348 347 347 345 343 343 342 340 339 338 339 339 340 341 342 342 343 343
305 304 294 292 297 302 305 308 307 307 310 312 312 310 312 324 330 332 333 330 330 331 333 336 352 352 353 353 352 351 349 348 348 347 346 345 345 343 341 341 341 341 342 343 344 344 345 346 344
301 298 295 295 298 300 304 308 306 307 308 310 314 309 312 318 328 334 332 330 327 328 330 332 344 349 354 352 352 351 349 349 348 348 347 347 347 346 345 343 343 344 344 344 344 345 346 346 344
306 302 295 297 298 299 306 306 306 307 309 316 317 309 308 318 328 334 332 330 328 326 328 327 336 342 344 347 353 352 350 349 348 348 348 347 348 347 345 345 346 344 345 346 345 345 347 346 345
310 296 293 297 299 300 304 304 309 311 310 312 315 315 316 319 329 328 326 326 330 332 325 325 329 336 340 342 346 352 351 350 350 349 349 346 342 342 342 345 345 345 345 346 347 346 347 345 344
305 296 297 303 305 302 307 304 307 308 308 309 313 317 318 318 319 324 323 325 323 329 331 325 326 332 334 339 339 344 344 343 344 343 343 342 340 339 342 343 345 345 346 347 348 347 346 343 337
306 300 304 305 307 308 308 309 311 307 304 308 309 311 314 317 317 317 322 323 324 327 330 331 328 329 332 335 336 338 342 341 341 340 339 341 340 340 341 338 340 340 345 341 345 344 342 338 335
303 308 308 307 309 310 309 311 308 308 309 312 313 314 315 314 314 315 316 317 316 318 325 330 333 331 331 332 334 335 338 338 338 339 338 339 338 335 336 336 335 334 336 339 339 338 338 336 334
305 307 310 313 313 313 313 311 310 310 314 315 315 315 314 314 314 314 316 316 315 314 316 318 332 333 333 330 331 333 334 337 337 338 338 338 336 335 333 333 331 331 332 335 336 335 335 333 332
299 307 309 310 308 307 305 306 307 309 314 312 313 313 313 312 313 313 312 313 312 314 314 314 327 334 334 332 331 331 333 335 335 337 338 337 336 333 331 330 329 330 331 332 334 334 332 332 330
299 294 297 298 300 302 307 302 304 309 311 309 311 312 312 311 312 312 313 313 314 315 315 315 316 331 333 334 333 332 332 335 335 336 337 337 334 332 330 328 329 330 331 331 331 331 331 330 328
294 294 291 300 299 301 304 296 306 309 308 308 309 310 310 310 311 312 313 313 314 314 314 315 317 330 333 333 334 333 333 335 335 336 337 337 335 333 329 329 329 331 330 330 329 329 329 328 327
289 289 289 294 301 301 301 297 304 308 307 306 307 307 308 309 310 311 312 312 313 313 313 313 314 325 331 331 331 331 332 334 334 333 335 336 335 333 330 330 330 331 329 328 328 326 327 325 325
285 287 292 291 297 300 298 298 302 306 306 306 304 305 306 307 309 311 312 314 313 313 313 313 313 320 328 328 328 329 332 331 332 333 333 335 335 333 331 330 329 329 328 327 326 326 325 326 324
291 290 289 292 297 298 297 298 300 302 302 303 304 306 307 308 312 310 311 312 312 312 312 312 315 321 328 327 326 326 328 328 328 332 334 334 334 333 331 329 328 328 327 327 326 325 324 323 324
289 287 286 291 295 294 293 292 294 297 299 301 303 304 305 306 306 308 309 309 310 311 313 314 317 324 327 328 325 327 325 325 327 329 333 334 334 333 332 330 328 328 326 326 325 324 323 322 322
287 287 287 288 293 294 291 290 293 296 297 299 301 303 305 304 304 307 307 307 308 312 316 319 322 327 328 327 325 323 324 324 324 325 327 331 333 333 331 329 327 327 327 325 324 323 322 320 321
282 290 291 290 288 284 290 282 291 294 295 296 297 299 300 302 305 306 306 307 308 313 323 325 328 329 327 327 325 326 323 322 322 324 325 328 331 331 330 329 329 327 326 325 324 324 323 321 319
285 291 289 289 286 284 285 282 286 291 291 294 297 299 300 300 303 303 305 307 308 317 324 327 328 328 327 326 327 324 322 321 322 324 324 326 328 329 330 331 329 327 326 325 324 324 322 322 320
291 287 286 286 284 277 284 284 285 289 292 295 297 299 300 299 300 302 304 305 312 323 326 327 327 326 327 327 325 324 323 322 322 322 322 323 325 326 329 328 328 327 325 325 324 324 323 321 321
285 280 275 275 275 277 286 283 287 292 294 296 296 297 298 299 300 301 304 312 317 323 325 327 327 324 326 326 325 324 323 323 323 322 322 322 323 324 326 327 325 325 325 325 324 323 323 322 320
281 280 276 274 275 277 286 281 286 294 298 299 299 298 298 298 298 300 304 312 320 323 325 327 326 323 324 324 323 323 323 322 322 323 323 323 324 325 326 326 326 325 325 326 324 323 322 323 323
283 279 283 278 279 276 281 285 291 295 296 297 297 297 297 297 299 300 306 317 322 324 323 326 325 323 323 322 322 322 323 323 322 323 324 324 324 325 326 326 325 325 326 325 324 323 323 324 324
286 287 279 276 274 274 278 281 284 290 292 295 296 296 297 299 301 300 315 321 324 324 324 325 325 323 323 323 323 323 323 323 323 324 324 324 325 327 325 324 324 325 325 324 323 322 323 324 324
284 281 282 280 278 276 275 279 289 291 293 293 294 295 298 309 311 313 321 323 324 324 324 323 323 322 322 323 323 322 322 323 323 323 324 325 326 327 325 325 325 325 324 324 322 323 324 324 324
286 283 283 278 278 280 277 279 292 292 292 293 294 298 303 314 314 320 321 323 323 323 323 323 322 322 322 323 322 322 322 322 322 323 325 325 325 326 326 326 325 325 324 323 323 323 325 324 323
Wind_Speed
5 4 1 3 4 5 4 8 4 5 4 1 5 8 15 6 10 8 4 13 10 13 16 19 22 20 19 18 17 17 17 17 18 18 18 17 17 16 15 14 14 13 11 10 8 6 4 2 2
4 2 3 2 5 1 7 6 7 7 7 8 2 3 2 6 4 3 4 8 9 14 14 15 22 21 20 20 18 18 18 18 18 18 18 17 16 15 14 14 13 12 11 10 9 7 6 4 2
5 1 4 4 4 7 6 5 7 6 9 6 3 4 5 4 2 3 2 12 10 11 13 13 22 22 22 21 20 19 18 18 18 17 17 16 15 14 13 12 11 11 9 9 8 7 5 4 2
4 3 4 3 8 7 8 5 3 9 8 4 4 4 1 2 6 7 10 12 11 10 12 17 23 23 23 23 22 21 20 18 18 18 17 17 16 14 12 13 11 10 9 8 7 7 6 5 4
3 2 1 4 6 6 5 9 7 7 5 8 2 5 2 2 3 8 11 12 13 10 11 14 23 23 22 22 21 20 20 19 19 19 19 18 17 16 14 13 12 11 10 9 8 7 7 7 7
4 3 1 7 7 4 5 9 4 5 5 7 1 4 5 1 5 9 10 10 8 13 12 12 20 22 22 21 21 22 21 20 20 19 20 19 18 18 17 14 13 12 11 11 10 9 8 6 4
6 5 5 4 4 4 6 7 6 5 5 2 0 6 4 3 7 5 7 6 5 6 8 8 12 17 20 21 22 22 21 20 21 20 19 19 18 17 16 15 15 13 13 12 11 10 8 6 6
5 4 4 6 5 7 3 3 4 1 4 6 3 3 4 6 8 8 7 7 5 4 5 6 6 11 12 13 22 21 21 21 20 20 20 19 18 17 16 15 14 14 13 13 12 10 8 7 7
5 2 6 8 7 5 1 4 5 4 4 6 5 1 5 3 8 6 3 2 4 4 6 6 6 7 9 9 11 18 21 21 20 19 19 16 8 10 13 13 15 15 13 13 12 11 9 8 9
5 5 10 7 12 4 5 2 3 4 7 4 5 7 10 4 2 7 6 8 4 6 8 9 9 10 8 8 9 11 10 11 11 10 11 9 8 8 10 11 16 15 14 13 12 11 11 9 3
7 10 12 7 10 6 12 12 6 2 6 7 4 10 6 1 3 6 8 9 13 7 4 11 13 11 11 10 6 5 5 5 6 9 8 7 6 4 3 3 3 4 10 4 7 6 4 4 3
6 14 17 4 8 4 12 6 4 7 13 8 9 8 6 7 8 9 9 9 7 9 12 11 12 11 10 7 7 8 7 7 6 8 10 7 5 7 9 8 6 4 3 4 4 3 4 4 5
14 7 8 15 13 14 8 15 13 12 14 12 11 9 11 10 7 8 10 8 7 9 13 10 8 12 11 12 8 8 9 8 8 7 10 9 8 9 3 5 5 4 3 4 4 4 4 4 5
1 15 18 9 8 8 6 15 5 8 14 13 14 17 10 8 11 7 6 9 9 11 12 8 12 14 13 13 14 11 9 8 8 8 9 11 8 8 7 5 5 4 4 4 4 5 5 6 4
9 6 5 6 3 7 1 26 19 13 14 13 14 16 12 10 10 11 9 8 9 9 9 11 10 10 14 14 12 8 8 8 8 8 9 12 10 10 7 6 4 5 3 5 3 3 3 3 4
4 5 18 16 8 6 9 27 23 6 11 17 19 16 10 11 9 9 9 9 11 9 10 10 6 10 13 12 9 8 7 7 7 7 8 11 11 10 7 6 5 4 4 4 3 3 3 3 3
4 17 13 13 10 8 13 24 13 7 7 13 15 12 11 11 9 9 9 10 10 10 11 10 8 11 12 7 7 6 7 6 6 6 7 11 11 10 7 6 6 5 4 4 3 2 3 3 3
10 11 16 8 4 15 13 28 15 13 12 15 10 11 11 12 13 7 9 12 9 10 8 10 5 8 8 5 4 4 6 5 6 6 7 10 8 11 9 6 6 5 4 3 3 3 3 2 2
5 10 2 4 6 6 19 24 16 8 9 15 17 20 21 21 18 8 9 10 10 10 10 8 8 7 8 4 4 3 4 3 3 5 7 9 9 10 10 6 6 6 6 5 4 2 2 2 2
3 1 3 4 6 4 7 11 9 7 10 11 18 18 15 16 8 10 10 10 9 10 11 8 6 8 8 5 3 4 4 3 3 3 5 8 10 10 10 8 7 7 4 4 4 4 2 2 4
7 10 3 2 8 7 6 14 12 8 10 13 14 15 13 11 12 12 12 10 9 10 9 6 6 8 7 7 6 5 6 4 3 3 3 5 8 8 7 7 6 6 4 4 4 5 5 3 3
5 6 5 7 4 9 3 15 17 15 16 10 14 15 13 10 12 14 10 12 10 10 4 4 7 10 8 9 7 10 5 5 3 4 3 4 5 5 6 6 6 6 3 4 4 4 4 3 4
11 6 6 4 4 2 2 6 3 6 12 17 17 18 16 17 17 14 13 13 10 5 6 6 7 8 8 7 9 7 7 4 3 3 6 3 3 4 5 6 6 5 4 4 5 5 5 3 3
3 6 1 2 3 4 7 8 17 10 18 15 14 15 12 10 10 10 10 8 6 4 5 6 8 6 8 7 7 9 11 9 7 4 4 3 3 3 4 5 4 4 4 5 5 5 5 5 4
2 5 2 2 3 10 11 10 21 8 9 5 6 8 9 10 9 9 9 7 5 6 6 6 8 7 7 8 7 8 9 8 9 7 5 6 4 3 4 5 5 3 4 5 4 4 4 4 4
7 8 6 7 5 5 11 15 9 13 24 22 14 9 9 9 9 10 10 7 7 7 8 8 9 9 8 8 7 7 8 5 4 4 4 4 3 4 4 4 4 5 5 4 4 3 3 4 4
4 4 6 3 3 2 6 8 11 12 17 9 7 4 9 11 11 11 8 7 9 9 9 11 10 8 7 8 8 7 7 7 6 6 4 3 4 3 4 5 5 5 5 4 5 3 3 4 3
4 5 3 2 4 5 5 7 10 5 7 8 8 10 12 12 10 9 5 9 8 10 9 10 10 10 8 9 8 7 7 6 6 5 5 5 4 4 5 5 5 5 4 4 4 2 3 4 3
6 3 1 4 5 4 3 7 8 14 2 5 7 8 10 13 11 0 8 9 10 11 11 10 11 11 9 8 7 8 6 6 5 5 4 4 4 5 5 5 5 5 5 5 4 3 3 4 3
2 4 1 3 5 7 2 9 3 5 5 7 9 13 12 6 3 3 8 11 10 11 11 11 10 11 9 8 8 7 6 5 5 5 5 5 5 4 5 5 5 5 5 5 4 4 4 4 4
Wind_Direction
179 149 123 55 67 64 260 253 270 274 284 207 125 150 182 160 164 210 315 167 133 150 161 171 173 177 182 183 179 171 170 165 162 157 154 156 154 151 153 155 154 155 155 152 148 140 130 107 76
130 162 46 87 104 128 263 241 247 247 249 312 245 94 147 213 202 272 145 173 156 150 162 170 176 178 185 187 182 179 177 171 167 162 159 160 157 157 158 161 161 164 162 161 159 159 155 158 169
148 284 101 143 166 192 233 220 225 265 260 234 262 225 170 211 173 210 313 140 133 150 162 172 179 182 187 190 184 183 184 176 171 167 166 163 161 163 164 170 170 170 172 175 173 174 172 181 208
138 359 28 149 222 254 221 249 246 314 335 183 198 247 293 177 165 181 128 137 144 155 165 178 183 186 190 190 187 185 184 180 176 174 172 168 167 167 173 177 178 184 188 195 199 193 198 205 238
53 53 152 256 239 246 250 271 294 284 273 275 173 261 244 208 112 126 150 153 159 163 177 181 189 189 192 193 188 189 187 183 182 180 176 173 172 173 179 184 185 194 199 206 214 221 222 225 238
69 99 104 236 234 232 245 244 253 251 274 280 105 167 257 38 186 177 158 162 169 172 178 183 192 193 194 194 193 192 191 187 186 186 181 180 177 177 181 186 193 198 205 209 218 228 239 251 243
144 114 217 234 267 254 234 229 212 261 280 261 342 157 264 273 212 116 131 125 134 158 181 188 196 199 196 198 199 197 193 192 190 190 188 183 182 181 182 187 196 204 210 215 222 228 234 249 254
137 129 206 227 214 259 268 332 349 305 272 289 170 205 242 257 116 113 114 121 133 169 191 194 191 197 202 201 206 201 197 197 196 194 191 187 186 184 188 191 198 205 212 216 221 232 224 229 242
126 131 223 214 183 233 77 25 303 289 268 326 325 130 328 85 106 91 87 131 167 194 205 194 209 205 202 204 211 207 209 202 202 201 196 188 182 189 193 195 200 206 213 219 220 219 218 221 229
159 183 226 182 221 262 293 235 355 328 339 314 276 351 19 72 147 162 189 225 227 216 207 194 206 211 199 204 202 210 210 210 200 202 194 187 176 186 186 195 202 210 218 224 223 220 217 224 203
192 225 231 234 219 243 266 289 198 248 278 213 262 310 309 218 209 247 225 211 215 221 195 200 213 204 199 206 196 203 201 208 202 195 184 180 171 157 69 340 270 197 222 221 227 222 211 197 199
206 222 230 230 224 247 256 267 214 198 251 255 272 268 275 265 213 230 238 239 227 220 236 215 210 202 202 199 204 197 199 200 197 194 178 174 162 141 189 182 217 225 198 218 209 201 204 206 206
239 230 222 243 258 261 278 263 269 256 260 259 268 262 258 257 258 230 228 247 257 247 246 231 183 202 201 197 198 193 202 198 197 180 183 177 173 185 194 201 179 208 202 217 211 207 201 207 212
176 229 251 260 256 266 269 276 211 288 279 299 290 286 259 235 245 261 211 237 224 231 242 228 209 208 194 200 201 202 195 192 182 185 186 182 176 178 185 180 185 204 206 224 210 202 207 207 192
272 296 299 228 201 251 213 279 247 242 278 280 267 269 278 245 252 236 240 253 256 262 249 220 214 204 197 202 203 200 189 180 185 186 176 181 171 181 186 179 175 221 219 215 195 191 180 219 209
194 185 248 250 180 230 160 262 275 224 233 254 263 269 267 266 250 255 247 236 255 253 263 262 203 198 198 202 186 186 175 181 185 175 173 180 182 178 173 174 198 201 201 191 185 186 201 218 200
235 237 221 255 215 192 184 256 253 222 235 263 266 274 277 283 275 254 257 256 256 246 253 261 205 204 198 173 169 156 160 172 164 161 172 183 178 186 166 184 198 172 176 189 179 175 173 198 215
206 218 237 220 183 197 225 254 250 267 277 265 270 276 271 267 263 261 269 278 273 273 257 249 215 189 149 126 124 122 150 158 160 170 180 175 174 169 178 179 178 164 164 183 164 180 191 215 229
57 233 270 219 228 188 227 255 261 252 249 263 266 266 270 273 280 268 272 274 289 286 272 241 189 168 142 134 141 131 166 157 152 177 171 170 166 170 172 185 164 166 187 185 156 138 221 256 192
279 236 221 290 261 198 271 278 280 252 253 244 252 260 262 269 288 275 269 268 268 268 274 267 204 169 162 151 141 138 142 146 136 160 170 166 170 175 180 168 172 171 149 150 176 178 177 217 178
216 230 210 219 334 293 302 284 267 252 237 246 247 249 253 253 257 265 262 261 276 272 272 264 184 154 141 134 116 88 87 78 96 129 157 179 170 166 162 156 151 156 160 179 184 177 179 188 185
205 174 204 222 177 254 66 282 268 271 263 242 252 256 258 233 243 251 256 270 254 260 239 190 161 145 143 148 134 153 142 146 147 154 149 155 163 155 140 152 156 159 154 168 188 175 183 163 172
236 187 204 209 196 211 177 277 291 194 260 251 253 254 248 234 240 244 241 244 266 229 206 170 149 140 139 141 155 133 107 94 111 117 129 126 127 145 151 157 154 150 165 171 173 176 186 180 152
207 154 166 109 133 243 183 204 276 244 242 260 257 259 251 249 247 249 252 255 252 185 159 149 143 133 131 135 131 128 125 128 127 126 131 134 122 125 144 150 155 157 166 174 182 187 176 183 180
184 85 107 133 212 227 177 186 241 261 288 186 279 282 269 262 261 256 260 243 216 178 151 137 132 126 129 125 129 127 129 141 147 152 147 143 138 148 172 165 162 161 175 182 177 172 184 180 192
182 166 168 178 191 195 178 226 242 226 249 264 287 287 287 295 265 251 246 227 183 156 141 130 130 122 121 128 129 122 129 130 119 129 137 147 146 154 170 176 160 172 166 179 156 160 171 186 199
186 156 207 40 284 103 223 287 291 274 281 274 309 319 289 274 272 261 234 180 158 148 136 135 130 120 126 124 112 112 120 120 132 136 128 132 135 170 162 150 157 153 176 158 153 170 193 197 198
156 175 126 15 208 237 260 253 240 326 272 313 345 324 305 292 292 261 178 154 145 138 132 123 131 131 129 123 121 125 125 122 128 131 140 141 146 144 134 145 149 157 164 155 152 164 220 195 203
8 332 142 155 172 212 299 260 221 213 308 17 310 308 316 320 321 65 148 145 142 129 128 127 123 126 126 128 122 121 123 125 133 138 138 148 145 143 148 151 142 163 155 164 147 196 208 202 195
182 246 120 208 247 252 168 265 278 113 73 20 349 336 328 316 338 139 153 143 139 130 132 130 132 133 138 135 124 124 128 132 136 131 150 145 144 148 148 143 153 159 158 162 163 201 209 201 179